Location: Baumgartsau
(48.4586°N, 14.0864°E)
Time: 17:06:52
(UTC+00:00)

USA 234 - Pass Details

Date: 09 April 2020
Orbit: 1102 x 1106 km, 123.0° (Epoch: 14 May)

Event Time Altitude Azimuth Distance (km) Brightness Sun altitude
Rises 21:33:10 0° 56° (NE) 3,926 6.3 -30.0°
Reaches altitude 10° 21:35:39 10° 54° (NE) 2,966 5.6 -30.2°
Maximum altitude 21:42:10 74° 331° (NNW) 1,147 3.3 -30.7°
Drops below altitude 10° 21:48:41 10° 248° (WSW) 2,960 5.5 -31.1°
Sets 21:51:10 0° 247° (WSW) 3,916 6.2 -31.2°
